Location: Bondula
(6.3703°N, 10.6756°W)
Time: 03:26:54
(UTC+00:00)

Nadezhda 3 Rocket - Pass Details

Date: 22 October 2019
Orbit: 957 x 999 km, 82.9° (Epoch: 13 November)

Event Time Altitude Azimuth Distance (km) Brightness Sun altitude
Rises 06:04:28 0° 342° (NNW) 3,692 6.7 -6.8°
Reaches altitude 10° 06:07:09 10° 335° (NNW) 2,739 6.0 -6.1°
Maximum altitude 06:12:54 39° 268° (W) 1,439 4.5 -4.7°
Drops below altitude 10° 06:18:37 10° 201° (SSW) 2,716 6.2 -3.3°
Sets 06:21:17 0° 193° (SSW) 3,658 7.0 -2.7°
